Location: Buchen
(47.3333°N, 11.1167°E)
Time: 15:38:03
(UTC+00:00)

Daily predictions for brighter satellites

Satellite Brightness Start Highest point End
(mag) Time Altitude Azimuth Time Altitude Azimuth Time Altitude Azimuth
Cosmos 968 Rocket 4.0 19:29:48 10° SSW 19:34:55 65° WNW 19:40:02 10° NNE
ERS-1 Rocket 4.4 19:33:32 10° ESE 19:37:30 24° ENE 19:41:28 10° N
Cosmos 405 3.1 19:34:16 10° NNW 19:37:40 73° W 19:41:04 10° S
Cosmos 1151 Rocket 4.0 19:33:35 10° SSW 19:37:45 50° WNW 19:41:55 10° N
Meteor 1-10 Rocket 4.3 19:32:24 10° S 19:37:57 87° W 19:43:37 10° N
Cosmos 389 Rocket 2.7 19:34:59 10° N 19:38:25 53° ENE 19:41:52 10° SSE
Cosmos 1933 Rocket 3.8 19:36:30 10° N 19:40:54 54° ENE 19:45:16 10° SSE
EXPRESS MD2 3.9 19:35:51 10° WNW 19:42:40 65° SSW 19:46:07 10° SE
Cosmos 1515 3.6 19:40:51 10° S 19:44:36 68° E 19:48:21 10° NNE
CZ-4B R/B 1.2 19:41:49 10° NNE 19:45:01 74° ESE 19:48:09 10° S
SPOT 1/Viking Rocket 3.6 19:41:00 10° SSE 19:46:10 78° ENE 19:51:20 10° NNW
Helios 1A Rocket 4.0 19:43:10 10° SE 19:46:39 29° ENE 19:50:09 10° N
Meteor 1-27 Rocket 3.8 19:41:35 10° S 19:47:19 73° E 19:53:13 10° NNE
Cosmos 1633 Rocket 4.2 19:46:59 10° NNW 19:51:09 43° W 19:55:16 10° SSW
Cosmos 2034 Rocket 4.3 19:46:15 10° SSE 19:52:15 49° E 19:58:21 10° NNE
Cosmos 2219 3.8 19:47:00 10° NW 19:52:30 55° WSW 19:57:57 10° S
SJ 16-02 2.0 19:50:12 10° SSE 19:54:08 34° ESE 19:58:05 10° NE
Cosmos 2278 4.4 19:49:35 10° SSE 19:54:36 34° ESE 19:59:39 10° NE
Cosmos 1340 2.6 19:51:13 10° S 19:54:56 77° E 19:58:42 10° NNE
Cosmos 2082 3.7 19:53:44 10° NNW 19:59:25 89° WSW 20:04:59 10° SSE
Meteor 1-11 Rocket 4.3 19:54:21 10° NNW 20:00:17 65° W 20:06:08 10° S
Cosmos 482 Debris 3.9 19:59:10 10° WNW 20:01:48 69° NNE 20:05:51 10° ESE
Cosmos 2263 Rocket 2.6 19:57:03 10° NNW 20:02:32 53° ENE 20:07:29 12° SE
Cosmos 1470 Rocket 4.2 19:58:20 10° NNW 20:02:34 55° W 20:06:46 10° S
Cosmos 1743 3.0 20:02:04 10° NNW 20:05:50 67° W 20:09:34 10° S
Ariane Rocket 3.2 20:00:58 10° S 20:06:02 76° WSW 20:11:10 10° NNW
SPOT 5 3.5 20:06:30 12° SE 20:11:10 50° ENE 20:16:06 10° N
IRAS Rocket 4.4 20:06:01 10° NNE 20:11:40 83° WNW 20:17:18 10° SSW
BREEZE-M DEB (TANK) 2.4 20:09:17 10° W 20:11:53 54° N 20:14:04 10° ENE
Terra 2.8 20:09:04 13° SE 20:12:49 35° ENE 20:17:07 10° N
Resurs 01 Rocket 2.6 20:10:40 10° S 20:14:53 45° W 20:19:07 10° NNW
Cosmos 1346 Rocket 4.3 20:15:00 15° SE 20:17:01 21° E 20:20:05 10° NE
Aureole 1 Rocket 3.2 20:14:03 10° SW 20:17:08 47° WNW 20:20:01 10° NNE
Cosmos 1515 Rocket 4.2 20:13:26 10° SSW 20:17:44 57° WNW 20:22:05 10° N
Cosmos 1809 Rocket 4.5 20:12:23 10° N 20:18:34 88° E 20:24:44 10° S
Cosmos 2227 Rocket 3.7 20:15:22 10° NW 20:20:16 30° WSW 20:25:08 10° SSW
Cosmos 921 Rocket 3.3 20:17:08 10° NNW 20:21:38 69° WSW 20:25:38 13° S
Cosmos 783 Rocket 4.5 20:22:07 10° NNW 20:27:21 87° WSW 20:31:34 16° SSE
Cosmos 1980 Rocket 2.3 20:24:21 10° SSW 20:30:00 85° WNW 20:35:43 10° NNE
CARTOSAT-1 3.9 20:26:14 11° S 20:30:16 65° W 20:34:35 10° NNW
Cosmos 1869 Rocket 3.6 20:26:27 10° N 20:30:58 86° E 20:34:33 16° S
SL-24 R/B - RUBIN 2 3.9 20:27:05 10° NNW 20:31:24 56° NE 20:34:41 18° ESE
Cosmos 2228 Rocket 3.1 20:29:01 11° S 20:33:20 69° E 20:37:52 10° NNE
Cosmos 1378 3.3 20:34:31 19° SSE 20:36:54 53° E 20:40:29 10° NNE
Cosmos 2344 3.6 20:30:55 10° SW 20:38:24 85° NW 20:46:13 10° NE
Cosmos 2322 Rocket 3.3 20:36:17 18° SE 20:38:44 24° ESE 20:43:10 10° NE
Cosmos 1777 Rocket 4.0 20:34:01 10° S 20:39:11 70° ESE 20:44:26 10° NNE
ISS -3.8 20:36:14 10° WNW 20:39:35 82° SSW 20:41:27 24° ESE
Spot 2 Rocket 3.5 20:35:42 16° SSE 20:39:43 89° ENE 20:44:47 10° NNW
Cosmos 2369 4.2 20:34:09 10° SW 20:39:45 65° WNW 20:45:24 10° NNE
Cosmos 1354 Rocket 4.2 20:35:11 10° SSW 20:40:27 76° WNW 20:45:48 10° NNE
SPOT 3 Rocket 4.0 20:36:10 12° S 20:40:57 59° WSW 20:46:04 10° NNW
Cosmos 773 Rocket 4.2 20:36:09 10° NNW 20:41:21 68° WSW 20:45:19 17° S
Cosmos 1844 Rocket 4.1 20:37:06 10° N 20:41:54 28° NE 20:46:18 11° ESE
ATLAS 2AS CENTAUR R/B 2.9 20:35:17 10° SSW 20:43:04 78° SE 20:50:39 10° NE
Okean 1 3.7 20:40:44 10° SSW 20:44:41 63° W 20:48:42 10° N
Meteor 2-4 Rocket 3.9 20:40:22 15° S 20:45:08 59° E 20:50:41 10° NNE
Meteor 1-19 Rocket 4.3 20:41:24 10° SSW 20:46:49 76° WNW 20:52:15 10° N
Cosmos 1092 Rocket 4.0 20:41:04 10° N 20:47:17 85° E 20:52:05 17° S
RESURS DK-1 2.3 20:44:43 10° SSW 20:48:50 86° WNW 20:52:59 10° NNE
Cosmos 1697 Rocket 4.4 20:43:59 10° WSW 20:49:11 36° NW 20:54:25 10° NNE
SL-4 R/B 4.1 20:47:03 10° W 20:50:04 18° SW 20:52:09 13° SSW
USA 267 4.4 20:47:28 10° ENE 20:53:30 41° N 20:59:33 10° WNW
Cosmos 1634 Rocket 4.0 20:49:58 15° S 20:55:09 70° E 21:01:19 10° NNE
ARIANE 5 R/B 2.7 20:53:39 24° SSE 20:56:16 70° ENE 21:00:46 10° N
Cosmos 1707 Rocket 3.6 20:54:13 21° S 20:57:02 66° E 21:01:26 10° NNE
ATLAS CENTAUR R/B 3.6 20:53:28 10° NNW 20:57:28 24° NE 21:01:21 10° E
Cosmos 44 Rocket 3.2 20:54:08 10° NW 20:58:51 80° WSW 21:01:28 26° SSE
Cosmos 2227 4.2 20:58:37 10° NNW 21:04:25 83° WSW 21:07:59 24° SSE
Cosmos 1733 4.2 21:01:52 10° N 21:05:18 32° ENE 21:06:32 26° ESE
Cosmos 158 Rocket 4.1 21:01:06 10° NNW 21:06:13 70° WSW 21:09:24 24° S
ATLAS 3B R/B 2.9 21:00:42 10° NW 21:08:05 81° NE 21:13:24 22° SE
NOSS 2-1 (E) 2.8 21:08:10 35° S 21:09:10 53° SE 21:12:19 10° NE
CSL-04 DEB 4.5 21:07:13 10° NNE 21:11:09 57° ESE 21:12:49 32° SSE
Cosmos 1975 3.2 21:07:18 10° NNW 21:11:20 60° W 21:13:33 25° SSW
Cosmos 2026 Rocket 4.1 21:06:21 10° NNW 21:12:31 74° W 21:17:00 20° S
USA 81 4.0 21:09:01 20° S 21:12:41 87° E 21:17:59 10° N
ERS-1 Rocket 3.5 21:12:32 19° S 21:15:57 52° W 21:20:54 10° NNW
SL-16 R/B 2.2 21:13:28 18° S 21:17:46 65° ESE 21:23:24 10° NNE
Meteor 1-4 Rocket 2.9 21:15:22 10° N 21:18:44 47° ENE 21:19:36 38° ESE
CZ-4C R/B 4.1 21:13:33 10° NNW 21:19:42 35° NNE 21:26:55 10° E
Cosmos 1538 Rocket 4.1 21:16:21 10° NNW 21:21:36 73° WSW 21:24:18 29° S
CZ-2C R/B 4.3 21:18:51 10° N 21:23:33 59° WNW 21:27:47 13° SSW
GENESIS II 4.1 21:20:46 12° SW 21:24:15 86° NW 21:28:13 10° NE
Meteor 2-10 4.5 21:20:21 10° N 21:25:29 49° ENE 21:27:49 29° SE
Cosmos 1733 Rocket 3.1 21:21:11 10° NNW 21:25:39 75° W 21:27:44 31° S
Geosat 3.9 21:28:35 31° SSE 21:31:02 87° ENE 21:36:07 10° NNW
OE (NEXTSAT) 4.0 21:28:20 10° W 21:31:38 71° S 21:32:08 57° ESE
SAR-Lupe-4 3.4 21:28:35 10° NNE 21:32:12 88° ESE 21:33:21 41° SSW
SJ 16-02 3.3 21:28:58 10° WSW 21:32:43 28° WNW 21:36:30 10° N
Cosmos 1356 3.3 21:35:10 56° SE 21:35:27 59° E 21:38:43 10° NNE
Cosmos 1908 Rocket 3.9 21:33:00 10° N 21:37:16 53° ENE 21:38:37 37° SE
Cosmos 923 Rocket 4.1 21:34:23 10° NNW 21:39:46 75° ENE 21:42:10 34° SE
Cosmos 1862 Rocket 3.7 21:37:31 28° SSW 21:39:50 73° W 21:44:20 10° N
Cosmos 2360 Rocket 2.5 21:40:43 33° SSE 21:42:51 49° ESE 21:48:17 10° NE
Cosmos 1937 Rocket 4.2 21:42:39 32° SE 21:43:57 37° ESE 21:48:46 10° NE
Cosmos 1726 2.8 21:41:04 10° N 21:44:34 40° ENE 21:45:09 37° ESE
Cosmos 2242 Rocket 4.5 21:43:56 31° ESE 21:44:57 35° E 21:49:05 10° NNE
Cosmos 2263 Rocket 3.6 21:41:32 10° NW 21:46:07 27° WSW 21:49:11 17° SSW
ALOS 2 4.0 21:44:37 21° ESE 21:46:18 27° ENE 21:50:01 10° N
Meteor 1-13 Rocket 4.2 21:44:30 32° S 21:47:10 73° E 21:52:42 10° NNE
Cosmos 2266 Rocket 4.1 21:42:09 10° N 21:48:24 68° ENE 21:51:20 32° SSE
NOSS 2-1 (C) 3.7 21:46:45 12° WSW 21:49:36 47° NW 21:52:46 10° NNE
Terra 3.2 21:47:57 19° SW 21:50:34 31° W 21:54:48 10° NNW
Cosmos 1441 Rocket 3.4 21:51:03 37° SW 21:52:18 61° WNW 21:56:00 10° N
Cosmos 1346 Rocket 4.3 21:50:23 16° SW 21:53:05 34° WNW 21:56:46 10° N
Cosmos 2279 Rocket 4.3 21:53:30 21° SSW 21:57:46 64° WNW 22:03:58 10° N
USA 215 3.4 21:53:41 10° ENE 22:00:02 50° SE 22:03:42 25° SSW
NOSS 2-1 (D) 4.2 21:57:04 10° WSW 22:00:05 37° NW 22:03:12 10° NNE
Cosmos 2112 Rocket 4.1 21:55:00 10° NNW 22:00:21 73° ENE 22:02:27 37° SE
Cosmos 990 Rocket 4.0 21:57:54 27° SSW 22:00:50 83° WNW 22:06:08 10° NNE
Cosmos 1680 Rocket 3.5 21:56:05 10° NNW 22:01:25 85° ENE 22:03:26 39° SSE
Cosmos 2278 Rocket 4.3 21:57:21 10° N 22:01:33 20° NE 22:05:42 10° E
Cosmos 1842 3.9 22:03:47 38° ESE 22:04:01 38° E 22:07:39 10° NNE
Meteor 1-12 Rocket 4.3 22:00:23 10° NNW 22:06:22 82° W 22:08:53 36° S
Cosmos 1066 Rocket 4.4 22:05:06 26° SSW 22:08:25 68° WNW 22:14:05 10° N
ADEOS Rocket 3.8 22:05:31 22° ESE 22:08:30 38° ENE 22:14:02 10° N
Spot 4 3.9 22:07:13 42° SE 22:08:48 72° ENE 22:13:36 10° N
Cosmos 1818 3.5 22:04:24 10° NW 22:09:54 84° NE 22:12:08 37° SE
Iridium 4 Rocket 3.2 22:07:35 10° N 22:12:11 88° E 22:13:44 45° S
Cosmos 1898 Rocket 3.5 22:11:50 35° SSW 22:14:11 88° ESE 22:19:32 10° NNE
ISS -1.2 22:13:51 10° W 22:14:21 12° WSW 22:14:21 12° WSW
Cosmos 1900 4.3 22:15:19 40° SSW 22:17:06 72° ESE 22:22:13 10° NE
Okean 1-7 3.1 22:17:25 46° SSW 22:18:39 76° W 22:23:03 10° N
Cosmos 2322 Rocket 2.7 22:18:02 17° SW 22:22:21 58° WNW 22:27:55 10° NNE
Okean 3 3.4 22:25:02 55° SSW 22:25:55 83° WNW 22:30:11 10° N
Cosmos 1844 Rocket 2.9 22:20:40 10° NW 22:26:09 58° WSW 22:27:57 40° SSW
Cosmos 2322 4.1 22:25:29 38° SE 22:26:52 45° ESE 22:32:18 10° NE
Cosmos 2333 Rocket 2.2 22:25:18 41° S 22:27:05 62° ESE 22:32:41 10° NNE
H-2A R/B 3.3 22:27:41 10° NNE 22:31:48 74° ESE 22:32:20 62° SSE
Cosmos 1461 3.6 22:28:21 10° NNW 22:32:23 48° NE 22:33:55 32° ESE
BREEZE-M DEB (TANK) 3.9 22:30:23 10° W 22:31:52 24° WSW 22:31:52 24° WSW
ATLAS 2AS CENTAUR R/B 4.3 22:27:37 10° W 22:34:44 38° NNW 22:41:35 10° NE
USA 267 3.4 22:29:45 11° ESE 22:36:01 72° NNE 22:42:33 10° NW
Meteor 1-23 Rocket 4.3 22:34:01 36° SSW 22:36:31 79° WNW 22:42:23 10° N
ATLAS CENTAUR R/B 1.6 22:31:56 10° NW 22:36:49 77° SW 22:37:50 54° SSE
Cosmos 1766 4.2 22:39:14 10° NNW 22:42:52 36° W 22:43:23 34° WSW
Cosmos 1553 Rocket 4.5 22:43:37 33° SE 22:45:48 46° E 22:51:41 10° NNE
Cosmos 2219 Rocket 2.2 22:44:47 44° S 22:46:26 66° ESE 22:51:59 10° NNE
Nadezhda 2 Rocket 4.5 22:42:16 10° N 22:48:27 73° E 22:50:51 39° SSE
Cosmos 1844 4.3 22:44:17 10° NW 22:49:49 46° WSW 22:51:27 37° SSW
Cosmos 2221 Rocket 4.2 22:51:06 39° ESE 22:51:41 41° E 22:55:51 10° NNE
Cosmos 372 Rocket 3.9 22:51:17 43° SSW 22:53:00 83° WNW 22:58:12 10° NNE
ATLAS 3B R/B 4.0 22:52:13 10° WNW 22:58:13 27° WSW 23:00:38 23° SW
Cosmos 1707 2.5 23:00:36 79° S 23:00:49 89° E 23:04:43 10° N
SL-16 R/B 4.1 22:57:39 10° WSW 23:02:21 26° NW 23:07:05 10° N
NOSS 3-1 (A) 4.1 22:55:03 10° NW 23:02:27 80° NE 23:08:57 20° SE
Cosmos 1782 Rocket 4.5 23:00:06 10° NNW 23:04:04 36° W 23:04:50 33° WSW
Cosmos 1125 Rocket 4.5 23:03:17 29° ESE 23:04:13 32° E 23:08:47 10° NE
ERS-2 2.3 23:03:04 10° N 23:06:38 60° WNW 23:06:52 58° W
Okean 2 3.3 23:06:39 64° SE 23:07:00 68° E 23:11:04 10° NNE
CZ-4C R/B 2.9 23:01:49 10° NW 23:09:04 87° SW 23:14:17 26° SE
NOSS 3-1 (C) 4.1 23:02:17 10° NW 23:09:44 67° SW 23:14:03 32° SSE
USA 290 3.1 23:10:46 44° ENE 23:10:46 44° ENE 23:13:14 10° NNE
Cosmos 1238 Rocket 3.0 23:09:29 10° N 23:11:57 46° NE 23:11:57 46° NE
Gblst 52 Del rocket 4.5 23:09:25 10° WSW 23:15:45 73° NNW 23:21:26 10° ENE
Cosmos 2237 Rocket 3.2 23:14:56 28° SE 23:16:13 32° ESE 23:21:11 10° NE
KORONAS-FOTON 3.6 23:16:49 82° SE 23:16:56 84° E 23:20:45 10° N
Cosmos 1470 3.7 23:15:21 10° NNW 23:18:54 35° W 23:19:01 35° W
Cosmos 1726 4.3 23:17:01 10° NW 23:19:12 15° W 23:19:26 15° W
COSMOS 2428 2.6 23:17:53 43° SSW 23:19:49 84° ESE 23:25:33 10° NNE
Cosmos 1300 Rocket 4.1 23:16:08 10° NNW 23:20:17 44° W 23:20:51 42° WSW
NOSS 2-2 (D) 4.4 23:15:42 10° NW 23:20:37 71° NE 23:25:35 19° SE
Cosmos 1745 Rocket 4.2 23:16:05 10° N 23:22:17 65° ENE 23:25:01 34° SSE
ALOS 2 3.5 23:22:00 33° WSW 23:22:31 34° W 23:26:34 10° NNW
PSLV R/B 3.6 23:18:30 10° NNE 23:22:54 70° ESE 23:23:40 56° SSE
Cosmos 2151 Rocket 3.5 23:18:47 10° N 23:23:13 90° E 23:23:57 62° S
Resurs 1-4 Rocket 4.4 23:21:22 10° ENE 23:23:22 12° E 23:25:21 10° ESE
USA 305 3.7 23:26:44 36° ESE 23:26:44 36° ESE 23:29:51 10° ENE
Cosmos 1242 Rocket 2.8 23:22:45 10° NNW 23:26:07 56° W 23:26:07 56° W
Cosmos 2360 Rocket 3.7 23:22:25 12° WSW 23:27:04 32° NW 23:32:08 10° NNE
Okean 2 Rocket 3.1 23:22:46 10° NNW 23:27:18 73° W 23:28:05 58° SSW
Cosmos 405 Rocket 2.8 23:28:20 59° ESE 23:28:24 59° E 23:32:09 10° NNE
Cosmos 1943 Rocket 4.1 23:25:38 10° N 23:30:21 26° NE 23:35:03 10° ESE
In-Cosmos 22 4.3 23:29:32 41° SSW 23:31:28 69° WNW 23:36:57 10° N
Cosmos 1437 Rocket 2.8 23:29:30 10° N 23:33:14 61° ENE 23:33:33 58° ESE
Nimbus 7 Rocket 4.3 23:28:04 10° NNE 23:33:59 89° ESE 23:36:12 41° SSW
Cosmos 1908 3.0 23:30:54 10° NNW 23:34:42 76° W 23:34:48 75° WSW
Cosmos 1867 3.6 23:33:43 38° SW 23:35:54 82° NW 23:41:25 10° NE
Cosmos 2298 Rocket 4.2 23:34:33 45° SSE 23:35:56 60° ESE 23:41:10 10° NNE
Cosmos 1626 2.1 23:37:36 69° W 23:37:41 69° W 23:41:22 10° N
GP-B 4.4 23:36:37 10° NNE 23:40:37 32° E 23:42:03 26° ESE
USA 215 3.6 23:36:43 10° NE 23:43:11 65° NNW 23:49:40 10° WSW
Cosmos 1953 2.3 23:40:11 10° N 23:44:13 75° E 23:44:46 62° SE
Cosmos 2278 Rocket 2.1 23:40:43 10° NNW 23:46:26 89° WSW 23:48:51 36° SSE
Cosmos 468 4.5 23:42:25 10° NNW 23:47:38 69° WSW 23:49:02 47° S
Cosmos 1674 3.4 23:50:45 38° W 23:51:06 39° WNW 23:54:40 10° N
ADEOS Rocket 3.6 23:52:27 30° SW 23:54:05 36° W 23:59:34 10° NNW
